Location: Cranbrook Institute of Science
(42.5830°N, 83.2450°W)
Time: 23:31:21
(UTC-04:00)

Daily predictions for brighter satellites

Satellite Brightness Start Highest point End
(mag) Time Altitude Azimuth Time Altitude Azimuth Time Altitude Azimuth
Cosmos 1340 Rocket 3.1 21:40:39 10° S 21:44:32 49° E 21:48:28 10° NNE
Cosmos 1934 Rocket 4.5 21:38:32 10° NNW 21:44:39 64° W 21:50:39 10° S
Cosmos 1980 4.3 21:40:09 10° NNW 21:45:45 60° WSW 21:51:19 10° S
Cosmos 1954 Rocket 4.1 21:43:11 10° SSW 21:48:24 90° NW 21:53:37 10° NNE
Spot 1 4.0 21:44:22 10° SSE 21:48:27 89° ENE 21:52:41 10° NNW
ATLAS 5 CENTAUR R/B 2.2 21:44:09 10° S 21:48:29 41° ESE 21:53:10 10° NE
Lacrosse 5 3.4 21:48:26 10° NNW 21:52:51 29° NNE 21:57:15 10° E
Cosmos 1850 Rocket 4.3 21:48:15 10° S 21:53:11 47° ESE 21:58:09 10° NNE
SPOT 5 4.0 21:49:45 10° SE 21:53:54 30° ENE 21:58:16 10° N
Cosmos 2084 4.0 21:51:14 10° S 21:54:48 31° ESE 21:58:15 10° ENE
Cosmos 1605 Rocket 4.2 21:48:46 10° N 21:55:01 78° W 22:01:20 10° S
Cosmos 614 Rocket 4.0 21:50:30 10° S 21:55:41 72° ESE 22:00:52 10° NNE
YAOGAN 6 2.6 21:52:22 10° SSE 21:55:59 84° ENE 21:59:41 10° N
Cosmos 2237 Rocket 2.9 21:50:40 10° NNW 21:56:08 53° WSW 22:01:33 10° S
Cosmos 1726 4.2 21:54:17 10° NE 21:56:14 14° ENE 21:58:10 10° ESE
Helios 1B rocket 2.6 21:52:46 10° NNE 21:56:57 83° WNW 22:01:05 10° SSW
Helios 1A 3.5 21:54:28 10° S 21:58:33 61° WSW 22:02:41 10° NNW
CZ-4B DEB 2.8 21:56:00 10° S 21:58:57 72° WSW 22:01:56 10° NNW
USA 234 3.6 21:53:26 10° ENE 21:59:34 42° SE 22:05:40 10° SSW
Cosmos 1842 Rocket 4.2 21:56:59 10° NNW 22:01:19 57° W 22:05:34 10° S
CZ-3B R/B 4.3 21:59:58 10° S 22:02:47 38° ESE 22:10:46 10° NE
Meteor 2-15 Rocket 4.5 21:57:53 10° S 22:03:57 87° E 22:10:04 10° N
Atlas Centaur 2 3.2 22:03:39 10° SSW 22:04:56 12° S 22:06:13 10° SSE
H-2A R/B 3.3 22:01:01 10° SE 22:05:33 29° ENE 22:10:10 10° N
ERS-1 Rocket 3.0 22:02:28 10° SSE 22:07:29 72° ENE 22:12:31 10° N
Abrixas rocket 4.0 22:07:20 10° WNW 22:10:13 29° N 22:13:07 10° ENE
Cosmos 1802 Rocket 4.4 22:04:28 10° N 22:10:23 47° ENE 22:16:08 11° SSE
Cosmos 1818 3.6 22:05:47 10° NNW 22:11:15 75° NE 22:16:16 12° SE
Cosmos 2227 Rocket 3.4 22:06:08 10° SW 22:11:35 48° WNW 22:17:04 10° NNE
Cosmos 1727 Rocket 4.3 22:08:04 10° SSW 22:14:21 73° W 22:20:44 10° N
Lacrosse 4 Rocket 3.5 22:10:46 10° WSW 22:14:36 32° NW 22:18:34 10° NNE
Cosmos 1908 3.3 22:12:38 10° N 22:16:30 61° E 22:20:03 12° SSE
Cosmos 1674 2.8 22:13:30 10° S 22:17:12 56° E 22:20:54 10° NNE
Cosmos 1741 Rocket 4.0 22:12:06 10° SSW 22:17:25 76° ESE 22:22:43 10° NNE
SL-16 R/B 2.3 22:13:59 10° NNW 22:19:41 81° WSW 22:25:09 11° SSE
Cosmos 1184 Rocket 4.1 22:17:16 10° SSW 22:20:29 44° WNW 22:23:44 10° N
Meteor 2-17 Rocket 4.5 22:16:51 10° N 22:23:01 73° E 22:29:08 10° SSE
ARGOS 3.3 22:20:18 12° SSE 22:25:22 65° ENE 22:30:45 10° N
NOSS 3-4 (A) 4.5 22:19:27 10° NW 22:26:17 52° WSW 22:33:32 10° SSE
NOSS 3-4 (C) 4.4 22:19:33 10° NW 22:26:23 53° WSW 22:33:39 10° SSE
Cosmos 1408 Rocket 3.9 22:23:35 11° SSE 22:27:29 45° E 22:31:37 10° NNE
KORONAS-FOTON 4.0 22:24:13 11° SSE 22:27:42 49° E 22:31:23 10° NNE
MetOp-A 4.1 22:22:23 10° SSE 22:27:45 87° ENE 22:33:08 10° NNW
Cosmos 1356 Rocket 3.4 22:28:27 10° S 22:32:40 79° E 22:36:59 10° NNE
Cosmos 1076 Rocket 3.5 22:28:42 10° S 22:33:03 86° E 22:37:27 10° N
Tiangong 1 0.6 22:31:25 10° WSW 22:34:13 83° S 22:36:45 12° E
Terra 3.1 22:36:22 15° ESE 22:39:22 27° ENE 22:43:22 10° N
Cosmos 2016 Rocket 4.0 22:36:10 10° N 22:42:27 71° E 22:47:32 16° SSE
Cosmos 2221 3.5 22:39:51 10° NNW 22:44:04 47° W 22:48:16 10° SSW
Okean 3 Rocket 4.4 22:39:51 10° SSW 22:44:15 52° W 22:48:38 10° N
Cosmos 2208 Rocket 4.4 22:44:45 10° NNW 22:50:00 62° WSW 22:54:24 15° S
Cosmos 332 Rocket 4.1 22:46:44 10° NNW 22:51:34 55° ENE 22:54:33 22° SE
ERBS 4.0 22:49:27 10° NNW 22:52:25 27° NNE 22:54:40 14° E
Cosmos 2227 4.2 22:48:43 10° SSW 22:54:25 71° ESE 23:00:07 10° NNE
Cosmos 1814 Rocket 4.4 22:49:42 10° N 22:54:57 52° ENE 22:58:11 22° SE
Cosmos 2151 4.1 22:54:01 22° ESE 22:55:29 27° E 22:59:06 10° NNE
RESURS DK-1 2.5 22:53:02 10° NNW 22:57:11 62° ENE 22:59:21 26° SE
CARTOSAT-1 4.3 22:55:32 22° SE 22:57:42 38° ENE 23:01:43 10° N
SL-08 RB Rocket 3.8 22:56:03 18° S 22:59:23 74° WSW 23:04:00 10° NNW
Cosmos 1242 Rocket 3.7 22:56:08 10° NNW 22:59:38 40° W 23:02:30 14° SSW
SPOT 1/Viking Rocket 3.5 22:56:35 20° SSE 23:00:15 90° ENE 23:05:26 10° NNW
Cosmos 1766 Rocket 3.8 22:58:37 10° SSW 23:02:54 67° W 23:07:15 10° N
Meteor 2-2 Rocket 4.3 22:57:26 10° N 23:03:13 79° E 23:07:10 22° SSE
USA 245 3.9 23:03:34 20° SSW 23:05:34 45° W 23:09:24 10° NNW
EO 1 Delta rocket 3.8 23:04:01 21° S 23:07:14 85° W 23:11:52 10° N
Cosmos 2233 Rocket 4.4 23:01:50 10° N 23:07:51 49° ENE 23:11:20 24° SE
Cosmos 841 Rocket 4.2 23:03:28 10° N 23:08:28 42° ENE 23:11:13 24° ESE
Cosmos 1328 Rocket 3.4 23:06:17 10° N 23:10:39 81° E 23:12:50 29° SSE
Cosmos 1763 Rocket 3.7 23:06:58 10° NNW 23:12:01 57° ENE 23:14:35 27° SE
Cosmos 2228 Rocket 3.1 23:07:30 10° N 23:12:07 77° E 23:14:28 29° SSE
SL-14 R/B 3.2 23:10:43 26° S 23:12:53 80° E 23:16:51 10° N
Cosmos 1515 Rocket 3.6 23:09:52 10° N 23:14:11 63° E 23:16:02 32° SSE
Cosmos 1328 3.7 23:15:50 26° S 23:18:04 90° NNE 23:22:08 10° N
H-2A R/B 2.5 23:17:20 31° SE 23:19:05 50° ENE 23:23:12 10° N
Cosmos 1867 4.4 23:13:48 10° SW 23:19:06 52° NW 23:24:27 10° NNE
Cosmos 1743 Rocket 3.4 23:16:55 26° S 23:19:19 83° E 23:23:40 10° N
Cosmos 1151 Rocket 3.2 23:18:53 10° N 23:23:14 60° E 23:24:51 36° SE
Cosmos 1300 2.9 23:19:34 10° NNW 23:23:24 67° W 23:25:01 32° SSW
Cosmos 2263 Rocket 2.5 23:21:44 28° SSE 23:24:03 43° ESE 23:29:19 10° NE
Cosmos 1626 2.7 23:25:43 37° ESE 23:26:09 38° E 23:29:38 10° NNE
SL-19 R/B 4.3 23:22:52 10° NNE 23:28:07 58° ESE 23:30:50 29° S
Cosmos 1726 3.3 23:28:19 10° NNW 23:31:44 37° W 23:33:27 23° SW
SPOT 5 4.3 23:28:20 14° SSW 23:31:52 32° W 23:36:23 10° NNW
ATLAS 5 CENTAUR R/B 3.9 23:29:06 10° WSW 23:33:16 30° NW 23:37:50 10° NNE
Meteor 2-10 4.4 23:28:49 10° NNW 23:34:21 68° W 23:37:39 26° S
IGS 5A 3.4 23:33:58 40° S 23:35:26 87° W 23:39:37 10° NNW
Cosmos 2123 Rocket 4.3 23:30:34 13° SSW 23:36:04 64° W 23:42:15 10° N
Lacrosse 5 1.9 23:31:10 10° NW 23:36:13 70° SW 23:38:09 37° SSE
Meteor 2-12 Rocket 4.4 23:31:38 10° N 23:37:42 70° E 23:40:35 32° SSE
Cosmos 371 Rocket 3.5 23:37:42 10° NNW 23:42:28 61° WSW 23:44:22 34° S
USA 234 3.8 23:36:18 10° NE 23:42:44 62° NW 23:49:09 10° WSW
H-2A R/B 3.2 23:41:24 19° SSW 23:44:47 38° W 23:49:50 10° NNW
Cosmos 1503 Rocket 4.2 23:43:59 38° SSE 23:45:26 49° ESE 23:50:26 10° NNE
Cosmos 1603 4.4 23:41:14 10° NW 23:46:35 44° WSW 23:49:19 26° SSW
Abrixas rocket 2.2 23:44:04 10° WNW 23:47:19 72° NNE 23:47:34 67° ENE
Cosmos 2285 Rocket 4.3 23:41:25 10° NNW 23:47:40 58° ENE 23:50:38 31° SE
PSLV R/B 3.2 23:49:41 66° N 23:49:41 66° N 23:52:13 10° N
CZ-4C R/B 3.8 23:53:11 44° ESE 23:54:06 54° ENE 23:58:22 10° N
